TimeCDT,TemperatureF,Dew PointF,Humidity,Sea Level PressureIn,VisibilityMPH,Wind Direction,Wind SpeedMPH,Gust SpeedMPH,PrecipitationIn,Events,Conditions,WindDirDegrees,DateUTC
12:53 AM,57.0,55.0,93,29.86,10.0,Calm,Calm,-,N/A,,Clear,0,2013-08-06 05:53:00
1:53 AM,54.0,53.1,97,29.86,10.0,Calm,Calm,-,N/A,,Clear,0,2013-08-06 06:53:00
2:53 AM,53.1,52.0,96,29.84,8.0,Calm,Calm,-,N/A,,Clear,0,2013-08-06 07:53:00
3:53 AM,53.1,52.0,96,29.84,10.0,Calm,Calm,-,N/A,,Clear,0,2013-08-06 08:53:00
4:53 AM,53.1,52.0,96,29.83,8.0,Calm,Calm,-,N/A,,Clear,0,2013-08-06 09:53:00
5:53 AM,53.1,53.1,100,29.84,8.0,Calm,Calm,-,N/A,,Clear,0,2013-08-06 10:53:00
6:53 AM,54.0,53.1,97,29.84,7.0,Calm,Calm,-,N/A,,Clear,0,2013-08-06 11:53:00
7:53 AM,57.0,55.0,93,29.84,9.0,SSE,3.5,-,N/A,,Clear,150,2013-08-06 12:53:00
8:53 AM,61.0,59.0,93,29.84,10.0,South,6.9,-,N/A,,Clear,180,2013-08-06 13:53:00
9:53 AM,64.9,57.9,78,29.82,10.0,SE,6.9,-,N/A,,Scattered Clouds,140,2013-08-06 14:53:00
10:53 AM,66.0,57.0,73,29.85,10.0,NNW,8.1,-,0.00,Rain,Light Rain,340,2013-08-06 15:53:00
11:53 AM,70.0,59.0,68,29.81,10.0,Variable,6.9,-,0.00,,Mostly Cloudy,0,2013-08-06 16:53:00
12:53 PM,73.9,60.1,62,29.79,10.0,SE,11.5,18.4,N/A,,Clear,130,2013-08-06 17:53:00
1:12 PM,75.2,60.8,61,29.77,10.0,SSE,11.5,-,N/A,,Mostly Cloudy,150,2013-08-06 18:12:00
1:38 PM,75.2,62.6,65,29.76,10.0,SE,11.5,18.4,N/A,,Scattered Clouds,140,2013-08-06 18:38:00
1:53 PM,75.9,62.1,62,29.78,10.0,SSE,10.4,-,N/A,,Mostly Cloudy,150,2013-08-06 18:53:00
2:02 PM,77.0,62.6,61,29.75,10.0,SE,10.4,-,N/A,,Mostly Cloudy,140,2013-08-06 19:02:00
2:20 PM,78.8,64.4,61,29.74,10.0,SE,10.4,-,N/A,,Mostly Cloudy,140,2013-08-06 19:20:00
2:53 PM,77.0,64.0,64,29.75,10.0,South,5.8,-,N/A,,Scattered Clouds,170,2013-08-06 19:53:00
3:53 PM,80.1,63.0,56,29.74,10.0,SW,12.7,-,N/A,,Mostly Cloudy,230,2013-08-06 20:53:00
4:53 PM,80.1,62.1,54,29.73,10.0,SW,13.8,-,N/A,,Partly Cloudy,230,2013-08-06 21:53:00
5:53 PM,78.1,64.0,62,29.72,10.0,SW,4.6,-,N/A,,Partly Cloudy,230,2013-08-06 22:53:00
6:53 PM,77.0,64.9,66,29.71,10.0,WSW,4.6,-,N/A,,Partly Cloudy,240,2013-08-06 23:53:00
7:09 PM,75.2,64.4,69,29.68,10.0,SW,5.8,-,N/A,Thunderstorm,Thunderstorm,230,2013-08-07 00:09:00
7:28 PM,69.8,64.4,83,29.76,1.8,West,29.9,41.4,N/A,Rain-Thunderstorm,Thunderstorms and Rain,260,2013-08-07 00:28:00
7:37 PM,64.4,59.0,83,29.71,3.0,West,3.5,38.0,N/A,Rain-Thunderstorm,Thunderstorms and Rain,270,2013-08-07 00:37:00
7:53 PM,64.0,60.1,87,29.75,10.0,West,11.5,21.9,N/A,Rain,Light Rain,260,2013-08-07 00:53:00
8:53 PM,63.0,61.0,93,29.77,10.0,WSW,5.8,-,0.00,,Partly Cloudy,250,2013-08-07 01:53:00
9:53 PM,61.0,60.1,97,29.77,10.0,WNW,5.8,-,N/A,,Clear,290,2013-08-07 02:53:00
10:53 PM,60.1,59.0,96,29.79,10.0,NW,6.9,-,N/A,,Clear,320,2013-08-07 03:53:00
11:53 PM,60.1,59.0,96,29.82,10.0,NW,5.8,-,N/A,,Clear,320,2013-08-07 04:53:00